Location: Bednik
(45.3500°N, 16.3833°E)
Time: 04:05:26
(UTC+00:00)

ALOS 2 - Pass Details

Date: 08 August 2020
Orbit: 630 x 632 km, 97.9° (Epoch: 23 September)

Event Time Altitude Azimuth Distance (km) Brightness Sun altitude
Exits shadow 22:27:30 50° 337° (NNW) 811 3.4 -28.4°
Drops below altitude 10° 22:30:48 10° 345° (NNW) 2,025 6.1 -28.5°
Sets 22:33:00 0° 347° (NNW) 2,937 7.3 -28.6°
